[Date Prev][Date Next][Thread Prev][Thread Next] - [Date Index][Thread Index][Author Index]

2 line ISS keps 5-16



ISS
1 25544U 98067A   01136.01247685  .00027417  00000-0  33809-3 0  9733
2 25544  51.5695 250.9644 0017495  51.5006 287.5355 15.59796222142040

----
Via the sarex mailing list at AMSAT.ORG courtesy of AMSAT-NA.
To unsubscribe, send "unsubscribe sarex" to Majordomo@amsat.org



AMSAT Top AMSAT Home